QPF
0.17 0.15 0.14 0.13 0.15 0.19 0.19 0.18 0.16 0.16 0.15 0.10 0.07 0.06 0.06 0.05 0.07 0.10 0.12 0.07 0.04 0.03 0.04 0.07 0.09 0.10 0.11 0.11 0.11 0.11 0.12 0.10 0.09 0.08 0.07 0.06 0.05 0.05 0.04 0.05 0.06 0.06 0.05
0.15 0.13 0.12 0.11 0.11 0.11 0.12 0.12 0.12 0.14 0.14 0.12 0.08 0.06 0.05 0.05 0.05 0.05 0.08 0.09 0.05 0.03 0.04 0.07 0.10 0.12 0.12 0.13 0.12 0.11 0.12 0.12 0.11 0.09 0.08 0.07 0.07 0.07 0.06 0.06 0.07 0.07 0.07
0.11 0.11 0.12 0.10 0.09 0.09 0.09 0.09 0.10 0.13 0.12 0.10 0.10 0.08 0.06 0.05 0.03 0.04 0.04 0.09 0.07 0.05 0.05 0.11 0.16 0.14 0.12 0.13 0.13 0.12 0.12 0.13 0.14 0.13 0.12 0.10 0.09 0.08 0.08 0.08 0.08 0.08 0.07
0.11 0.12 0.11 0.09 0.07 0.07 0.08 0.10 0.12 0.13 0.14 0.13 0.12 0.08 0.06 0.05 0.03 0.04 0.04 0.05 0.08 0.06 0.06 0.06 0.07 0.09 0.10 0.12 0.14 0.16 0.15 0.15 0.16 0.16 0.15 0.15 0.12 0.11 0.11 0.11 0.10 0.09 0.08
0.09 0.11 0.10 0.08 0.07 0.07 0.08 0.08 0.11 0.13 0.14 0.14 0.09 0.07 0.05 0.05 0.05 0.03 0.04 0.05 0.07 0.07 0.07 0.06 0.07 0.10 0.12 0.16 0.17 0.18 0.18 0.18 0.19 0.23 0.24 0.25 0.22 0.19 0.16 0.14 0.12 0.11 0.10
0.08 0.10 0.10 0.08 0.07 0.07 0.09 0.09 0.09 0.10 0.11 0.11 0.07 0.07 0.07 0.06 0.05 0.06 0.04 0.06 0.07 0.07 0.09 0.11 0.12 0.10 0.11 0.13 0.15 0.16 0.17 0.18 0.18 0.22 0.26 0.28 0.26 0.24 0.21 0.18 0.16 0.15 0.13
0.06 0.07 0.09 0.08 0.07 0.08 0.08 0.09 0.09 0.09 0.09 0.10 0.11 0.10 0.08 0.06 0.07 0.07 0.06 0.05 0.05 0.05 0.08 0.10 0.11 0.11 0.10 0.12 0.12 0.13 0.14 0.17 0.18 0.17 0.19 0.21 0.23 0.24 0.24 0.21 0.20 0.21 0.22
0.07 0.06 0.06 0.05 0.05 0.06 0.07 0.07 0.08 0.08 0.09 0.10 0.12 0.12 0.11 0.10 0.08 0.06 0.05 0.03 0.03 0.04 0.06 0.07 0.09 0.11 0.12 0.12 0.11 0.11 0.11 0.13 0.16 0.17 0.21 0.24 0.23 0.23 0.24 0.26 0.26 0.26 0.29
0.06 0.08 0.05 0.04 0.04 0.05 0.06 0.06 0.06 0.06 0.07 0.08 0.09 0.11 0.11 0.12 0.11 0.08 0.05 0.03 0.04 0.05 0.06 0.06 0.06 0.07 0.08 0.10 0.10 0.10 0.09 0.09 0.12 0.17 0.21 0.22 0.22 0.24 0.26 0.28 0.29 0.28 0.27
0.05 0.06 0.05 0.04 0.03 0.04 0.04 0.04 0.04 0.05 0.06 0.06 0.08 0.08 0.09 0.11 0.12 0.09 0.07 0.05 0.05 0.05 0.05 0.05 0.04 0.04 0.05 0.06 0.07 0.07 0.07 0.08 0.10 0.14 0.19 0.20 0.19 0.20 0.21 0.19 0.18 0.18 0.20
0.04 0.03 0.04 0.04 0.03 0.04 0.04 0.04 0.04 0.05 0.06 0.07 0.07 0.08 0.08 0.10 0.12 0.12 0.09 0.06 0.04 0.03 0.03 0.02 0.02 0.02 0.03 0.04 0.05 0.06 0.07 0.08 0.12 0.17 0.20 0.23 0.20 0.17 0.16 0.15 0.14 0.14 0.15
0.03 0.03 0.03 0.03 0.03 0.04 0.05 0.05 0.06 0.07 0.07 0.07 0.07 0.07 0.08 0.09 0.13 0.15 0.11 0.07 0.05 0.03 0.02 0.01 0.02 0.02 0.03 0.03 0.05 0.07 0.08 0.09 0.12 0.14 0.15 0.17 0.19 0.17 0.16 0.16 0.16 0.17 0.18
0.02 0.02 0.02 0.02 0.02 0.03 0.04 0.05 0.05 0.05 0.05 0.04 0.04 0.04 0.05 0.07 0.09 0.11 0.12 0.08 0.05 0.03 0.02 0.01 0.01 0.02 0.03 0.03 0.05 0.05 0.05 0.05 0.05 0.06 0.09 0.12 0.16 0.18 0.18 0.17 0.18 0.19 0.18
0.01 0.01 0.01 0.01 0.01 0.01 0.02 0.02 0.03 0.04 0.04 0.03 0.03 0.03 0.04 0.05 0.05 0.06 0.08 0.07 0.05 0.04 0.02 0.02 0.02 0.02 0.03 0.04 0.05 0.05 0.04 0.05 0.06 0.07 0.08 0.10 0.12 0.13 0.15 0.15 0.16 0.16 0.15
0.01 0.01 0.01 0.01 0.01 0.01 0.02 0.02 0.02 0.02 0.03 0.04 0.04 0.03 0.04 0.04 0.04 0.04 0.05 0.05 0.06 0.05 0.04 0.03 0.02 0.03 0.04 0.04 0.05 0.04 0.04 0.05 0.05 0.06 0.07 0.09 0.11 0.12 0.12 0.11 0.11 0.11 0.11
0.01 0.01 0.01 0.02 0.01 0.02 0.03 0.03 0.03 0.02 0.02 0.02 0.02 0.02 0.02 0.03 0.03 0.04 0.04 0.05 0.06 0.05 0.04 0.03 0.03 0.04 0.04 0.04 0.05 0.04 0.03 0.04 0.04 0.04 0.05 0.06 0.07 0.08 0.09 0.09 0.09 0.08 0.07
0.01 0.01 0.01 0.01 0.01 0.01 0.01 0.02 0.02 0.01 0.02 0.02 0.01 0.01 0.02 0.02 0.03 0.03 0.04 0.05 0.04 0.04 0.04 0.04 0.03 0.04 0.04 0.04 0.04 0.04 0.03 0.03 0.04 0.04 0.05 0.05 0.06 0.06 0.07 0.07 0.07 0.07 0.07
0.01 0.01 0.01 0.01 0.01 0.01 0.01 0.01 0.01 0.02 0.02 0.02 0.02 0.02 0.02 0.01 0.02 0.02 0.03 0.04 0.04 0.04 0.03 0.04 0.04 0.05 0.04 0.04 0.04 0.03 0.02 0.03 0.03 0.04 0.04 0.04 0.05 0.05 0.05 0.05 0.05 0.05 0.04
0.01 0.01 0.01 0.01 0.01 0.02 0.02 0.01 0.02 0.02 0.02 0.03 0.02 0.03 0.03 0.02 0.03 0.03 0.04 0.03 0.03 0.03 0.04 0.03 0.04 0.04 0.04 0.04 0.04 0.04 0.03 0.02 0.02 0.02 0.03 0.03 0.03 0.03 0.03 0.03 0.03 0.02 0.02
0.01 0.02 0.01 0.01 0.01 0.01 0.02 0.02 0.03 0.02 0.02 0.02 0.02 0.02 0.03 0.02 0.02 0.02 0.03 0.03 0.03 0.04 0.04 0.04 0.03 0.03 0.03 0.03 0.03 0.04 0.03 0.02 0.02 0.01 0.01 0.01 0.01 0.01 0.00 0.00 0.00 0.00 0.00
0.01 0.02 0.02 0.01 0.01 0.01 0.01 0.01 0.03 0.03 0.03 0.03 0.02 0.01 0.02 0.02 0.01 0.02 0.03 0.03 0.03 0.03 0.04 0.05 0.04 0.04 0.03 0.02 0.03 0.02 0.03 0.02 0.02 0.01 0.01 0.01 0.01 0.01 0.01 0.00 0.00 0.00 0.00
0.01 0.01 0.01 0.01 0.01 0.00 0.01 0.00 0.01 0.03 0.03 0.03 0.03 0.02 0.01 0.01 0.01 0.02 0.03 0.03 0.03 0.03 0.04 0.05 0.05 0.05 0.05 0.04 0.03 0.02 0.03 0.03 0.03 0.01 0.02 0.02 0.01 0.02 0.02 0.01 0.00 0.00 0.00
0.01 0.01 0.02 0.02 0.01 0.01 0.01 0.00 0.00 0.02 0.04 0.04 0.03 0.02 0.01 0.01 0.01 0.01 0.02 0.02 0.03 0.03 0.03 0.04 0.06 0.06 0.06 0.05 0.04 0.03 0.03 0.03 0.03 0.01 0.02 0.03 0.02 0.02 0.01 0.00 0.00 0.00 0.00
0.01 0.02 0.02 0.02 0.02 0.01 0.01 0.01 0.01 0.02 0.03 0.03 0.02 0.02 0.02 0.02 0.01 0.02 0.02 0.02 0.02 0.02 0.02 0.02 0.04 0.04 0.03 0.03 0.03 0.02 0.02 0.02 0.02 0.01 0.01 0.03 0.02 0.02 0.01 0.00 0.00 0.00 0.00
0.02 0.02 0.02 0.02 0.03 0.02 0.02 0.02 0.02 0.04 0.03 0.02 0.01 0.01 0.01 0.01 0.01 0.02 0.03 0.03 0.02 0.02 0.01 0.01 0.02 0.02 0.01 0.01 0.01 0.02 0.02 0.03 0.03 0.02 0.02 0.02 0.02 0.02 0.02 0.01 0.00 0.00 0.00
0.03 0.03 0.02 0.02 0.03 0.03 0.03 0.02 0.02 0.05 0.05 0.04 0.02 0.01 0.01 0.01 0.01 0.01 0.03 0.04 0.03 0.02 0.01 0.01 0.02 0.02 0.02 0.02 0.01 0.02 0.03 0.03 0.03 0.04 0.02 0.01 0.01 0.01 0.02 0.02 0.01 0.00 0.00
MSLP
1018.38 1018.32 1018.14 1017.90 1017.67 1017.50 1017.39 1017.36 1017.38 1017.41 1017.42 1017.38 1017.29 1017.17 1017.04 1016.95 1016.92 1016.98 1017.12 1017.34 1017.59 1017.87 1018.14 1018.39 1018.61 1018.82 1019.03 1019.24 1019.46 1019.70 1019.96 1020.22 1020.49 1020.77 1021.04 1021.31 1021.58 1021.86 1022.13 1022.40 1022.66 1022.91 1023.14
1018.43 1018.39 1018.23 1018.00 1017.77 1017.57 1017.44 1017.37 1017.36 1017.38 1017.39 1017.37 1017.32 1017.24 1017.14 1017.05 1017.00 1017.01 1017.08 1017.21 1017.38 1017.59 1017.80 1018.02 1018.23 1018.43 1018.63 1018.83 1019.03 1019.25 1019.48 1019.72 1019.99 1020.26 1020.55 1020.86 1021.17 1021.49 1021.80 1022.11 1022.41 1022.69 1022.97
1018.47 1018.44 1018.31 1018.12 1017.91 1017.72 1017.58 1017.51 1017.48 1017.50 1017.52 1017.52 1017.50 1017.44 1017.35 1017.25 1017.16 1017.10 1017.09 1017.12 1017.21 1017.33 1017.49 1017.67 1017.86 1018.05 1018.24 1018.43 1018.62 1018.81 1019.02 1019.24 1019.49 1019.76 1020.07 1020.40 1020.75 1021.10 1021.46 1021.81 1022.14 1022.47 1022.80
1018.50 1018.50 1018.40 1018.25 1018.07 1017.91 1017.79 1017.71 1017.69 1017.71 1017.74 1017.76 1017.75 1017.70 1017.61 1017.50 1017.36 1017.24 1017.15 1017.09 1017.09 1017.14 1017.25 1017.39 1017.56 1017.74 1017.92 1018.09 1018.26 1018.42 1018.59 1018.78 1019.01 1019.27 1019.58 1019.92 1020.30 1020.69 1021.09 1021.47 1021.85 1022.22 1022.59
1018.54 1018.56 1018.49 1018.38 1018.24 1018.11 1018.01 1017.95 1017.93 1017.95 1017.98 1018.00 1018.01 1017.96 1017.87 1017.74 1017.58 1017.40 1017.24 1017.12 1017.06 1017.06 1017.12 1017.24 1017.39 1017.56 1017.72 1017.87 1018.00 1018.11 1018.22 1018.36 1018.53 1018.76 1019.05 1019.40 1019.79 1020.21 1020.64 1021.07 1021.49 1021.91 1022.32
1018.61 1018.63 1018.59 1018.51 1018.41 1018.31 1018.22 1018.17 1018.15 1018.16 1018.18 1018.21 1018.21 1018.18 1018.09 1017.95 1017.77 1017.57 1017.38 1017.22 1017.13 1017.11 1017.15 1017.26 1017.41 1017.56 1017.69 1017.79 1017.86 1017.89 1017.91 1017.96 1018.05 1018.21 1018.46 1018.78 1019.17 1019.60 1020.07 1020.54 1021.01 1021.48 1021.95
1018.71 1018.72 1018.69 1018.63 1018.56 1018.47 1018.40 1018.34 1018.31 1018.31 1018.32 1018.34 1018.34 1018.31 1018.23 1018.10 1017.93 1017.73 1017.55 1017.40 1017.31 1017.30 1017.36 1017.47 1017.61 1017.74 1017.83 1017.87 1017.84 1017.76 1017.65 1017.57 1017.54 1017.60 1017.76 1018.04 1018.40 1018.85 1019.34 1019.86 1020.39 1020.91 1021.45
1018.85 1018.84 1018.80 1018.75 1018.69 1018.61 1018.53 1018.46 1018.41 1018.39 1018.39 1018.40 1018.40 1018.38 1018.31 1018.20 1018.06 1017.90 1017.75 1017.64 1017.59 1017.62 1017.71 1017.84 1017.99 1018.09 1018.13 1018.07 1017.92 1017.70 1017.44 1017.19 1017.00 1016.92 1016.98 1017.18 1017.51 1017.95 1018.47 1019.04 1019.63 1020.23 1020.84
1019.02 1018.98 1018.93 1018.87 1018.80 1018.71 1018.62 1018.54 1018.47 1018.43 1018.41 1018.40 1018.40 1018.39 1018.34 1018.26 1018.16 1018.04 1017.95 1017.90 1017.92 1018.00 1018.15 1018.31 1018.46 1018.55 1018.52 1018.37 1018.09 1017.70 1017.26 1016.82 1016.46 1016.22 1016.15 1016.26 1016.54 1016.97 1017.52 1018.14 1018.80 1019.49 1020.19
1019.21 1019.13 1019.06 1018.98 1018.89 1018.80 1018.69 1018.59 1018.50 1018.44 1018.40 1018.38 1018.38 1018.36 1018.33 1018.28 1018.22 1018.15 1018.12 1018.14 1018.23 1018.38 1018.58 1018.79 1018.96 1019.03 1018.95 1018.71 1018.30 1017.76 1017.14 1016.51 1015.97 1015.57 1015.37 1015.39 1015.62 1016.04 1016.61 1017.28 1018.02 1018.79 1019.58
1019.38 1019.27 1019.17 1019.07 1018.97 1018.86 1018.74 1018.63 1018.52 1018.44 1018.39 1018.36 1018.34 1018.33 1018.30 1018.26 1018.22 1018.20 1018.22 1018.30 1018.45 1018.68 1018.94 1019.20 1019.40 1019.47 1019.36 1019.06 1018.55 1017.88 1017.11 1016.33 1015.63 1015.09 1014.77 1014.71 1014.89 1015.30 1015.89 1016.62 1017.43 1018.28 1019.15
1019.52 1019.38 1019.26 1019.15 1019.03 1018.91 1018.78 1018.66 1018.54 1018.45 1018.38 1018.34 1018.31 1018.27 1018.24 1018.20 1018.16 1018.16 1018.21 1018.34 1018.55 1018.83 1019.16 1019.48 1019.73 1019.82 1019.72 1019.39 1018.83 1018.09 1017.23 1016.34 1015.54 1014.90 1014.49 1014.36 1014.51 1014.91 1015.52 1016.29 1017.15 1018.06 1018.99
1019.62 1019.46 1019.32 1019.20 1019.07 1018.94 1018.81 1018.68 1018.56 1018.46 1018.38 1018.31 1018.26 1018.20 1018.14 1018.07 1018.03 1018.02 1018.08 1018.24 1018.49 1018.83 1019.23 1019.61 1019.92 1020.08 1020.02 1019.72 1019.17 1018.43 1017.54 1016.62 1015.77 1015.09 1014.64 1014.48 1014.60 1015.00 1015.61 1016.40 1017.28 1018.22 1019.17
1019.68 1019.52 1019.38 1019.24 1019.11 1018.97 1018.83 1018.69 1018.57 1018.46 1018.36 1018.28 1018.19 1018.10 1018.00 1017.90 1017.83 1017.80 1017.87 1018.03 1018.32 1018.71 1019.16 1019.62 1020.01 1020.26 1020.29 1020.07 1019.60 1018.92 1018.09 1017.21 1016.38 1015.71 1015.26 1015.10 1015.22 1015.60 1016.21 1016.99 1017.87 1018.79 1019.73
1019.76 1019.60 1019.45 1019.31 1019.16 1019.01 1018.86 1018.72 1018.58 1018.46 1018.34 1018.23 1018.11 1017.97 1017.83 1017.70 1017.59 1017.54 1017.59 1017.76 1018.07 1018.50 1019.01 1019.55 1020.04 1020.39 1020.55 1020.46 1020.12 1019.57 1018.86 1018.08 1017.34 1016.74 1016.34 1016.19 1016.31 1016.69 1017.27 1018.01 1018.84 1019.72 1020.59
1019.87 1019.72 1019.57 1019.42 1019.26 1019.10 1018.93 1018.77 1018.61 1018.46 1018.32 1018.17 1018.01 1017.84 1017.66 1017.49 1017.35 1017.28 1017.32 1017.50 1017.83 1018.29 1018.86 1019.48 1020.06 1020.53 1020.82 1020.89 1020.72 1020.34 1019.80 1019.17 1018.57 1018.07 1017.74 1017.64 1017.77 1018.12 1018.66 1019.33 1020.09 1020.87 1021.63
1020.07 1019.93 1019.78 1019.62 1019.44 1019.25 1019.06 1018.87 1018.68 1018.50 1018.32 1018.13 1017.94 1017.73 1017.51 1017.31 1017.15 1017.07 1017.11 1017.30 1017.64 1018.14 1018.76 1019.44 1020.11 1020.69 1021.11 1021.34 1021.34 1021.15 1020.79 1020.35 1019.90 1019.53 1019.29 1019.24 1019.38 1019.70 1020.17 1020.76 1021.40 1022.06 1022.70
1020.36 1020.23 1020.08 1019.90 1019.70 1019.48 1019.26 1019.03 1018.80 1018.57 1018.35 1018.13 1017.90 1017.66 1017.43 1017.21 1017.04 1016.96 1017.01 1017.20 1017.57 1018.09 1018.73 1019.45 1020.18 1020.84 1021.38 1021.74 1021.90 1021.88 1021.71 1021.45 1021.16 1020.91 1020.77 1020.76 1020.90 1021.18 1021.58 1022.06 1022.58 1023.10 1023.60
1020.73 1020.60 1020.45 1020.26 1020.03 1019.78 1019.52 1019.24 1018.97 1018.71 1018.45 1018.19 1017.92 1017.66 1017.41 1017.19 1017.03 1016.96 1017.02 1017.23 1017.60 1018.12 1018.78 1019.51 1020.26 1020.97 1021.57 1022.02 1022.31 1022.43 1022.42 1022.31 1022.16 1022.03 1021.97 1022.00 1022.13 1022.36 1022.68 1023.05 1023.45 1023.84 1024.20
1021.11 1021.00 1020.84 1020.63 1020.39 1020.11 1019.82 1019.51 1019.20 1018.90 1018.60 1018.31 1018.02 1017.74 1017.49 1017.27 1017.12 1017.07 1017.13 1017.35 1017.71 1018.23 1018.86 1019.57 1020.31 1021.01 1021.63 1022.13 1022.49 1022.71 1022.81 1022.82 1022.79 1022.75 1022.75 1022.80 1022.93 1023.11 1023.34 1023.61 1023.89 1024.16 1024.41
1021.45 1021.34 1021.18 1020.97 1020.71 1020.43 1020.11 1019.79 1019.46 1019.13 1018.81 1018.49 1018.19 1017.90 1017.65 1017.44 1017.30 1017.25 1017.32 1017.53 1017.88 1018.36 1018.94 1019.60 1020.28 1020.94 1021.54 1022.04 1022.42 1022.69 1022.86 1022.95 1022.99 1023.02 1023.06 1023.13 1023.23 1023.37 1023.53 1023.70 1023.88 1024.05 1024.21
1021.67 1021.56 1021.40 1021.20 1020.96 1020.68 1020.37 1020.05 1019.72 1019.39 1019.06 1018.73 1018.43 1018.14 1017.88 1017.67 1017.54 1017.49 1017.56 1017.75 1018.06 1018.48 1019.00 1019.57 1020.18 1020.76 1021.30 1021.75 1022.12 1022.40 1022.60 1022.73 1022.82 1022.88 1022.95 1023.01 1023.09 1023.18 1023.28 1023.38 1023.47 1023.57 1023.67
1021.73 1021.62 1021.48 1021.30 1021.08 1020.84 1020.56 1020.27 1019.97 1019.66 1019.34 1019.03 1018.72 1018.43 1018.18 1017.97 1017.83 1017.77 1017.82 1017.97 1018.23 1018.58 1019.01 1019.50 1020.00 1020.50 1020.95 1021.35 1021.67 1021.93 1022.12 1022.27 1022.37 1022.45 1022.52 1022.58 1022.63 1022.68 1022.72 1022.77 1022.81 1022.85 1022.90
1021.62 1021.53 1021.41 1021.26 1021.10 1020.90 1020.69 1020.46 1020.20 1019.94 1019.66 1019.37 1019.07 1018.79 1018.53 1018.32 1018.16 1018.08 1018.08 1018.19 1018.38 1018.66 1019.01 1019.40 1019.80 1020.20 1020.57 1020.90 1021.17 1021.39 1021.56 1021.70 1021.80 1021.88 1021.94 1021.98 1022.01 1022.02 1022.03 1022.03 1022.03 1022.03 1022.06
1021.39 1021.32 1021.23 1021.14 1021.03 1020.91 1020.77 1020.62 1020.44 1020.23 1020.00 1019.75 1019.48 1019.20 1018.94 1018.71 1018.52 1018.40 1018.37 1018.41 1018.55 1018.75 1019.01 1019.32 1019.64 1019.95 1020.24 1020.50 1020.72 1020.90 1021.05 1021.16 1021.25 1021.31 1021.36 1021.39 1021.39 1021.38 1021.35 1021.32 1021.29 1021.27 1021.28
1021.13 1021.08 1021.04 1021.00 1020.96 1020.91 1020.86 1020.79 1020.69 1020.55 1020.38 1020.16 1019.92 1019.65 1019.38 1019.13 1018.91 1018.75 1018.66 1018.65 1018.72 1018.86 1019.05 1019.28 1019.54 1019.79 1020.02 1020.23 1020.40 1020.55 1020.67 1020.76 1020.83 1020.87 1020.90 1020.91 1020.89 1020.85 1020.80 1020.75 1020.69 1020.66 1020.65
Thickness
5715 5717 5717 5717 5717 5717 5718 5718 5719 5719 5720 5721 5723 5724 5724 5724 5724 5721 5719 5718 5717 5716 5715 5714 5713 5711 5710 5709 5708 5707 5706 5705 5704 5703 5702 5701 5700 5699 5698 5697 5696 5695 5694
5710 5712 5713 5713 5713 5714 5715 5714 5714 5714 5715 5716 5717 5718 5719 5719 5718 5717 5715 5714 5713 5712 5711 5711 5710 5709 5708 5707 5706 5705 5704 5704 5703 5702 5700 5699 5698 5697 5696 5694 5693 5692 5691
5705 5706 5708 5709 5708 5709 5709 5709 5709 5710 5710 5711 5711 5712 5712 5713 5713 5712 5711 5710 5708 5707 5706 5706 5706 5705 5705 5704 5703 5703 5702 5701 5701 5700 5698 5697 5695 5694 5693 5692 5691 5689 5688
5700 5700 5702 5702 5703 5704 5704 5704 5705 5704 5704 5704 5704 5706 5707 5707 5707 5707 5705 5704 5704 5702 5701 5701 5701 5701 5701 5701 5700 5700 5698 5698 5698 5697 5696 5695 5693 5692 5691 5689 5688 5686 5684
5693 5693 5694 5695 5696 5698 5698 5699 5699 5698 5697 5697 5698 5699 5700 5701 5701 5701 5699 5698 5698 5696 5695 5695 5695 5696 5696 5696 5696 5696 5695 5694 5694 5694 5693 5692 5691 5689 5688 5686 5684 5682 5680
5686 5686 5688 5689 5690 5691 5692 5692 5691 5692 5691 5691 5692 5693 5693 5693 5694 5694 5693 5692 5691 5690 5689 5688 5689 5689 5690 5690 5691 5691 5691 5691 5690 5689 5689 5688 5687 5686 5684 5683 5681 5679 5676
5678 5679 5680 5681 5683 5684 5684 5684 5684 5684 5684 5685 5684 5682 5684 5686 5687 5686 5685 5684 5683 5682 5681 5681 5681 5682 5683 5684 5685 5686 5686 5686 5685 5685 5684 5684 5682 5681 5679 5677 5675 5673 5671
5670 5672 5671 5673 5675 5676 5677 5677 5677 5677 5678 5679 5676 5673 5672 5674 5677 5678 5677 5676 5674 5674 5673 5673 5673 5674 5675 5676 5677 5679 5680 5680 5680 5680 5679 5678 5677 5675 5673 5671 5669 5667 5665
5662 5663 5664 5665 5667 5668 5669 5669 5669 5670 5669 5671 5672 5669 5665 5665 5665 5667 5667 5666 5665 5665 5665 5665 5665 5666 5667 5668 5669 5671 5673 5674 5674 5675 5673 5672 5671 5669 5668 5666 5663 5661 5659
5653 5655 5656 5657 5659 5660 5661 5661 5662 5662 5662 5662 5664 5665 5664 5663 5659 5656 5656 5656 5656 5655 5655 5656 5656 5657 5658 5660 5661 5663 5664 5666 5667 5667 5666 5665 5664 5662 5660 5657 5655 5653 5651
5645 5646 5647 5648 5650 5651 5652 5652 5653 5653 5654 5654 5654 5655 5656 5656 5656 5652 5648 5646 5646 5645 5646 5646 5647 5648 5649 5651 5653 5655 5656 5657 5658 5658 5657 5656 5655 5653 5652 5650 5648 5645 5643
5636 5637 5639 5639 5640 5642 5642 5643 5644 5645 5646 5646 5646 5647 5647 5647 5647 5647 5643 5640 5637 5635 5636 5637 5638 5638 5639 5641 5643 5645 5647 5648 5649 5649 5648 5647 5646 5644 5643 5641 5640 5638 5636
5628 5628 5629 5630 5631 5633 5634 5635 5636 5637 5638 5638 5639 5639 5640 5641 5641 5641 5638 5634 5630 5628 5627 5627 5628 5629 5630 5631 5633 5635 5637 5639 5640 5640 5639 5638 5637 5635 5634 5633 5632 5630 5628
5619 5619 5620 5621 5623 5624 5625 5626 5627 5628 5630 5631 5632 5633 5633 5634 5634 5634 5632 5629 5624 5621 5619 5618 5619 5620 5621 5622 5623 5625 5626 5628 5629 5629 5629 5628 5627 5626 5624 5623 5622 5620 5618
5610 5610 5611 5612 5613 5614 5616 5617 5618 5619 5621 5622 5624 5625 5626 5627 5627 5627 5627 5626 5622 5616 5612 5610 5611 5611 5613 5614 5614 5615 5616 5616 5618 5618 5618 5617 5616 5616 5614 5613 5611 5610 5608
5600 5601 5602 5603 5604 5605 5607 5609 5610 5611 5612 5614 5616 5617 5617 5618 5619 5620 5620 5620 5619 5616 5608 5605 5604 5604 5605 5606 5606 5606 5606 5607 5607 5607 5607 5606 5606 5605 5604 5602 5601 5599 5598
5592 5593 5593 5594 5595 5597 5598 5600 5601 5602 5604 5605 5607 5608 5609 5610 5611 5612 5612 5612 5612 5610 5604 5598 5597 5597 5597 5598 5598 5598 5598 5598 5597 5597 5596 5596 5595 5595 5594 5593 5592 5590 5589
5585 5585 5585 5586 5587 5589 5590 5592 5593 5595 5596 5596 5598 5599 5600 5602 5602 5603 5603 5604 5604 5603 5600 5594 5590 5590 5590 5591 5591 5591 5591 5591 5590 5589 5588 5587 5587 5586 5586 5585 5584 5582 5581
5577 5577 5577 5578 5579 5581 5582 5584 5585 5586 5587 5588 5589 5590 5591 5592 5592 5594 5595 5595 5596 5596 5594 5590 5586 5584 5584 5585 5585 5584 5585 5585 5584 5582 5581 5580 5580 5579 5579 5578 5577 5576 5574
5569 5569 5570 5570 5571 5572 5572 5574 5576 5577 5579 5580 5581 5582 5582 5583 5584 5585 5586 5587 5588 5587 5586 5584 5581 5579 5579 5579 5579 5578 5578 5579 5579 5578 5577 5576 5575 5574 5573 5573 5572 5571 5570
5563 5563 5563 5563 5563 5563 5562 5564 5567 5570 5572 5573 5574 5574 5574 5575 5576 5578 5579 5579 5580 5580 5579 5577 5576 5574 5573 5573 5573 5574 5574 5574 5574 5575 5573 5573 5571 5570 5570 5569 5569 5568 5566
5556 5556 5556 5555 5555 5554 5554 5557 5560 5563 5566 5566 5567 5568 5569 5569 5569 5570 5571 5573 5574 5574 5574 5573 5572 5571 5570 5570 5571 5571 5571 5570 5569 5572 5571 5570 5571 5570 5569 5568 5568 5567 5566
5550 5550 5550 5549 5549 5547 5549 5551 5554 5557 5559 5560 5561 5563 5565 5564 5564 5565 5566 5568 5568 5570 5570 5571 5569 5568 5567 5569 5568 5568 5568 5568 5568 5571 5570 5569 5570 5570 5571 5571 5569 5568 5566
5546 5545 5545 5545 5544 5543 5543 5546 5548 5552 5554 5555 5556 5557 5558 5557 5558 5559 5562 5564 5565 5565 5566 5566 5566 5567 5567 5567 5566 5567 5567 5568 5569 5571 5570 5567 5570 5570 5572 5571 5570 5568 5566
5543 5543 5542 5542 5541 5540 5540 5542 5544 5548 5550 5550 5551 5551 5552 5552 5553 5555 5558 5559 5560 5559 5560 5561 5563 5563 5564 5564 5564 5565 5565 5565 5565 5568 5570 5568 5569 5570 5570 5570 5570 5569 5567
5542 5542 5541 5540 5539 5538 5538 5540 5542 5545 5546 5546 5546 5546 5546 5547 5549 5551 5553 5554 5555 5556 5558 5559 5560 5562 5563 5563 5564 5564 5564 5563 5563 5565 5569 5568 5567 5568 5567 5570 5571 5569 5567